Regional Weather Roundup
Issued by NWS Albany, NY

Home | Current Version | Previous Version | Text Only | Print | Product List | Glossary On
Versions: 1 2 3 4 5 6 7 8 9 10 11 12 13 14 15 16 17 18 19 20 21 22 23 24 25 26 27 28 29 30 31 32 33 34 35 36 37 38 39 40 41 42 43 44 45 46 47 48 49 50
000
ASUS41 KALY 010310
RWRALY

NEW YORK STATE HOURLY WEATHER ROUNDUP
NATIONAL WEATHER SERVICE ALBANY NY
1100 PM EDT SUN AUG 31 2014

NOTE: "FAIR" INDICATES FEW OR NO CLOUDS BELOW 12,000 FEET WITH NO
SIGNIFICANT WEATHER AND/OR NO OBSTRUCTIONS TO VISIBILITY.

NYZ032-033-038>043-046>054-057>066-NYZ062>081-010400-
EAST


CITY           SKY/WX    TMP DP  RH WIND       PRES   REMARKS
ALBANY         CLOUDY    74  71  91 S3        29.96F
GLENS FALLS    MOCLDY    72  70  93 SW6       29.95S
POUGHKEEPSIE   MOCLDY    72  70  93 SE3       29.98F
NEWBURGH       MOCLDY    72  70  94 CALM      30.02F
MONTGOMERY     MOCLDY    70  69  97 S3        30.00F
WHITE PLAINS   MOCLDY    74  72  93 NW3       30.01R FOG
ISLIP          CLOUDY    75  71  87 SW9       29.99S
NEW YORK CITY  CLOUDY    79  72  79 SW7       30.00R
CENTRAL PARK   CLOUDY    76  72  87 SW5       30.03S
$$

NYZ005>009-017-018-044>046-055-056-010400-
CENTRAL


CITY           SKY/WX    TMP DP  RH WIND       PRES   REMARKS
FULTON         MOCLDY    70  67  90 S6        29.96S
SYRACUSE       MOCLDY    72  67  84 S3        29.96S
ROME           MOCLDY    69  68  96 CALM      29.98S
ELMIRA         CLOUDY    69  69 100 CALM      30.01S
BINGHAMTON     MOCLDY    69  67  93 SW7       30.04S
MONTICELLO     CLOUDY    68  66  94 W3        30.06S
$$

NYZ026>034-041>043-010400-
NORTH


CITY           SKY/WX    TMP DP  RH WIND       PRES   REMARKS
WATERTOWN      MOCLDY    71  65  81 CALM      29.94R
FORT DRUM      NOT AVBL
MASSENA        CLOUDY    67  67 100 VRB3      29.91F
SARANAC LAKE   MOCLDY    65  65 100 SW5       29.97S FOG
PLATTSBURGH    CLOUDY    74  66  76 VRB6      29.90S
$$

NYZ001>004-010>016-019>021-010400-
WEST


CITY           SKY/WX    TMP DP  RH WIND       PRES   REMARKS
NIAGARA FALLS  PTCLDY    70  68  93 SW10      29.95F FOG
BUFFALO        CLEAR     71  67  87 SW9       29.97S
DUNKIRK        PTCLDY    68  67  96 CALM      29.98F
JAMESTOWN      CLOUDY    66  66 100 S5        30.04S
WELLSVILLE     CLOUDY    69  66  90 W3        30.07F
ROCHESTER      PTCLDY    70  67  90 SW7       29.96S
PENN YAN       PTCLDY    70  67  90 S6        30.00F
$$

             KEY
       WCI = WIND CHILL INDEX
       VSB = VISIBILITY
       HX  = HEAT INDEX
$$


USA.gov is the U.S. government's official web portal to all federal, state and local government web resources and services.